Overview Statistics Trail Chart Weather Telemetry Raw packets
 

This is the latest recevied weather packets stored in our database for station/object OE6PWE-13. If no packets are shown the sender has not sent any weather packets the latest 10 day(s).

<< 21 22 23 24 25 26 27 >>
Time Temp. Humidity Pressure Rain* Wind** Luminosity Snow
1788201012 18.33° C 99% 1016 hPa 0 mm - - -
1788200112 18.33° C 99% 1016 hPa 0 mm - - -
1788199212 18.33° C 99% 1016 hPa 0 mm - - -
1788198312 18.33° C 99% 1015 hPa 0 mm - - -
1788197412 18.33° C 99% 1015 hPa 0 mm - - -
1788196512 18.33° C 99% 1014 hPa 0 mm - - -
1788195611 18.33° C 99% 1014 hPa 0 mm - - -
1788194711 18.89° C 98% 1014 hPa 0 mm - - -
1788193811 20° C 95% 1014 hPa 0 mm - - -
1788192911 27.22° C 80% 1013 hPa 0 mm - - -
1788192015 28.89° C 45% 1012 hPa 0 mm - - -
1788191112 30° C 44% 1012 hPa 0 mm - - -
1788190211 31.11° C 41% 1012 hPa 0 mm - - -
1788189311 33.33° C 38% 1012 hPa 0 mm - - -
1788188412 34.44° C 35% 1011 hPa 0 mm - - -
1788187512 34.44° C 35% 1011 hPa 0 mm - - -
1788186612 33.33° C 35% 1011 hPa 0 mm - - -
1788185712 35° C 37% 1011 hPa 0 mm - - -
1788184812 35° C 35% 1012 hPa 0 mm - - -
1788183912 33.89° C 28% 1012 hPa 0 mm - - -
1788183016 32.78° C 29% 1012 hPa 0 mm - - -
1788182112 32.78° C 32% 1012 hPa 0 mm - - -
1788181212 32.22° C 30% 1012 hPa 0 mm - - -
1788180311 32.78° C 32% 1012 hPa 0 mm - - -
1788179412 33.33° C 29% 1012 hPa 0 mm - - -

* Rain latest hour (hover to see other rain measurements)
** Current wind speed in m/s (hover to see current wind gust speed)